This is the latest recevied weather packets stored in our database for station/object WI0K. If no packets are shown the sender has not sent any weather packets the latest 10 day(s).
| Time | Temp. | Humidity | Pressure | Rain* | Wind** | Luminosity | Snow |
|---|---|---|---|---|---|---|---|
| 1788286766 | 26.11° C | 34% | 1020.2 hPa | 0 mm | - | 933 W/m² | - |
| 1788286465 | 25.56° C | 36% | 1020.3 hPa | 0 mm | - | 930 W/m² | - |
| 1788286165 | 25.56° C | 36% | 1020.4 hPa | 0 mm | - | 926 W/m² | - |
| 1788285864 | 25.56° C | 38% | 1020.4 hPa | 0 mm | - | 924 W/m² | - |
| 1788285563 | 25.56° C | 37% | 1020.5 hPa | 0 mm | - | 920 W/m² | - |
| 1788285261 | 25.56° C | 38% | 1020.5 hPa | 0 mm | - | 913 W/m² | - |
| 1788284960 | 25° C | 40% | 1020.5 hPa | 0 mm | - | 907 W/m² | - |
| 1788284659 | 25° C | 41% | 1020.5 hPa | 0 mm | - | 901 W/m² | - |
| 1788284358 | 24.44° C | 44% | 1020.7 hPa | 0 mm | - | 894 W/m² | - |
| 1788284058 | 24.44° C | 41% | 1020.8 hPa | 0 mm | - | 891 W/m² | - |
| 1788283757 | 24.44° C | 42% | 1020.9 hPa | 0 mm | - | 886 W/m² | - |
| 1788283457 | 23.89° C | 45% | 1020.9 hPa | 0 mm | - | 879 W/m² | - |
| 1788283156 | 23.89° C | 45% | 1021 hPa | 0 mm | - | 877 W/m² | - |
| 1788282855 | 23.33° C | 47% | 1021 hPa | 0 mm | - | 876 W/m² | - |
| 1788282554 | 23.33° C | 46% | 1021 hPa | 0 mm | - | 881 W/m² | - |
| 1788282252 | 22.78° C | 48% | 1021 hPa | 0 mm | - | 889 W/m² | - |
| 1788281952 | 22.22° C | 50% | 1021 hPa | 0 mm | - | 660 W/m² | - |
| 1788281651 | 21.67° C | 53% | 1021 hPa | 0 mm | - | 727 W/m² | - |
| 1788281350 | 21.11° C | 55% | 1021.1 hPa | 0 mm | - | 356 W/m² | - |
| 1788281050 | 21.11° C | 58% | 1021.1 hPa | 0 mm | - | 251 W/m² | - |
| 1788280749 | 21.11° C | 60% | 1021.2 hPa | 0 mm | - | 246 W/m² | - |
| 1788280448 | 21.11° C | 57% | 1021.2 hPa | 0 mm | - | 241 W/m² | - |
| 1788280147 | 20.56° C | 58% | 1021.1 hPa | 0 mm | - | 236 W/m² | - |
| 1788279846 | 20.56° C | 60% | 1021.1 hPa | 0 mm | - | 191 W/m² | - |
| 1788279546 | 20.56° C | 60% | 1021.1 hPa | 0 mm | - | 230 W/m² | - |
* Rain latest hour (hover to see other rain measurements)
** Current wind speed in m/s (hover to see current wind gust speed)